Warning: Javascript must be enabled to use all the features on this page!


Page Loading - Please Wait...

Click to hideNews Bulletins

Peak Streamflow for the Nation

USGS 11113500 SANTA PAULA C NR SANTA PAULA

Ventura County, California
Hydrologic Unit Code 18070102
Latitude  34°24'48", Longitude 119°04'53" NAD27
Drainage area 38.4  square miles
Gage datum 702.00 feet above NAVD88
Output formats
Table
Graph
Tab-separated file
peakfq (watstore) format
Reselect output format
Water
Year
Date Gage
Height
(feet)
Stream-
flow
(cfs)
1933 1933-01-19 4.86 2,650
1934 1933-12-31 8.30 8,500
1935 1935-01-05 4.00 1,530
1936 1936-02-12 4.95 2,900
1937 1937-02-14 4.32 1,350
1938 1938-03-02 10.56 13,500
1939 1939-03-09 3.26 371
1940 1940-02-25 3.34 364
1941 1941-03-04 5.00 3,150
1942 1941-12-29 3.10 554
1943 1943-01-22 9.30 10,000
1944 1944-02-22 4.51 1,900
1945 1945-02-02 5.05 2,500
1946 1946-03-30 4.30 1,350
1947 1946-11-20 3.90 850
1948 1948-03-24 2.59 85.0
1949 1949-03-11 2.79 147
1950 1950-02-06 3.70 660
1951 1951-04-28 1.82 7.90
1952 1952-01-15 8.00 7,300
1953 1952-12-20 3.05 219
1954 1954-01-24 3.84 977
1955 1955-04-30 2.63 78.0
1956 1956-01-26 3.87 835
1957 1957-01-13 3.92 825
1958 1958-04-03 8.80 9,130
1959 1959-02-16 3.82 954
1960 1960-02-02 2.82 156
1961 1960-11-12 2.95 178
1962 1962-02-10 5.40 3,150
1963 1963-02-09 3.78 684
1964 1964-04-01 3.546 572
1965 1965-04-09 3.76 548
1966 1965-11-24 7.49 6,480
1967 1966-12-06 6.43 4,500
1968 1967-11-21 3.97 345
1969 1969-02-25 15.186 21,000
1970 1970-02-28 7.55 940
1971 1970-11-29 7.96 2,530
1972 1971-12-25 6.84 937
1973 1973-02-11 13.30 13,400
1974 1974-01-06 8.09 614
1975 1974-12-04 7.88 1,440
1976 1976-02-09 7.96 458
1977 1977-01-02 6.84 134
1978 1978-02-10 13.80 16,000
1979 1979-01-15 8.65 3,680
1980 1980-02-16 12.59 11,800
1981 1981-03-01 4.846 527
1982 1982-04-01 5.80 1,910
1983 1983-03-01 7.44 4,750
1984 1983-12-25 4.88 1,230
1985 1984-12-19 3.20 90.0
1986 1986-02-14 6.92 3,550
1987 1987-03-06 3.15 170
1988 1988-02-28 5.74 1,950
1989 1989-02-09 2.85 109
1990 1990-02-17 4.06 499
1991 1991-03-18 5.07 1,010
1992 1992-02-12 16.40 10,000
1993 1993-01-14 14.57 7,130
1994 1994-02-20 7.53 698
1995 1995-01-10 15.28 8,140
1996 1996-02-20   1,230
1997 1996-12-22 9.42 2,130
1999 1999-04-11 769.556 97.0
2000 2000-02-23 771.61 1,410
2001 2001-03-05 772.21 3,480
2002 2001-11-24 767.962 35.0
2003 2003-03-15 770.39 782
2004 2004-02-26 771.48 2,410
2005 2005-01-10 776.90 27,500
2006 2006-01-02 73.116 3,040
2007 2007-01-28 71.06 72.0
2008 2008-01-04 73.84 4,580
2009 2009-02-06 72.51 287
2010 2010-01-18 74.02 3,040
2011 2011-03-20 75.44 12,500
2012 2012-04-13 72.98 803
2013 2013-03-08 71.96 18.0
2014 2014-03-01 73.97 1,230
2015 2014-12-12 72.36 53.42
2016 2016-01-06 73.51 624
2017 2017-02-17 75.63 3,910
2018 2018-03-22 72.46 901
2019 2019-01-17 75.33 3,480
2020 2020-04-06 72.91 1,020
2021 2021-01-29 70.37 11.4
?
  Peak Gage-Height Qualification Codes.
?
  Peak Streamflow Qualification Codes.